List of Articles
번호 분류 제목 글쓴이 날짜 조회 수 추천 수
10391 튜닝/성능 1967 Volkswagen 골프 잡초인생 2018.12.11 14 0
10390 홍보영상 2018 렉서스 RX 홍보편 amanda 2018.12.10 20 0
10389 충돌테스트 성적이 좋은 BMW X5 충돌테스트 amanda 2018.12.10 26 0
10388 충돌테스트 별 다섯개 획득한 Toyota C-HR Rachel 2018.12.10 40 0
10387 오프로드 구형 랜드로버 오프로드 Rachel 2018.12.10 51 0
10386 튜닝/성능 튜닝비용이 차보다 비싼 JEEP 랭글러 제임스타임 2018.12.10 35 0
10385 홍보영상 마쯔다 VISION COUPE 요구르트 2018.12.09 21 0
10384 오프로드 인피니티 QX50 오프로드테스트 요구르트 2018.12.09 21 0
10383 튜닝/성능 토요타 코롤라 튜닝버전 KillU 2018.12.09 19 0
10382 튜닝/성능 인피니티 Q50 튜닝버전 KillU 2018.12.09 27 0
10381 홍보영상 Life is a race AMG GT4 KillU 2018.12.09 23 0
10380 충돌테스트 BMW X3 안전충돌테스트 글래머에디터 2018.12.09 32 0
10379 오프로드 신형 BMW X5 오프로드 테스트 글래머에디터 2018.12.09 12 0
10378 튜닝/성능 Audi A6 튜닝의매력! 글래머에디터 2018.12.09 8 0
10377 튜닝/성능 Audi A4 튜닝의매력! 글래머에디터 2018.12.09 13 0
10376 튜닝/성능 마쯔다6 아텐자 튜닝버전 글래머에디터 2018.12.09 14 0
10375 홍보영상 아우디 RS7 vs 벤츠 G63 file Kellan 2018.12.08 44 0
10374 홍보영상 스바루 WRX STI 홍보편 Kellan 2018.12.08 20 0
10373 튜닝/성능 해외 튜닝카 모임! 시카고섹시걸 2018.12.08 26 0
10372 튜닝/성능 상상을 초월하는 일본튜닝카들 시카고섹시걸 2018.12.08 28 0
10371 튜닝/성능 맥라렌 570S 도라에몽버전 Lucifer 2018.12.08 40 0
10370 튜닝/성능 롤스로이스 같은 롤스로이스 아닌 튜닝카 2 마르시아 2018.12.08 48 0
10369 충돌테스트 별 5개 획득한 재규어 I-PACE 안전충돌테스트 샤샤샤 2018.12.08 9 0
목록
Board Pagination Prev 1 2 3 4 5 6 7 8 9 10 ... 453 Next
/ 453
서버에 요청 중입니다. 잠시만 기다려 주십시오...